Zurück zum Katalog

STARLINK-6164

AktivKommunikationVLEO
NORAD 57152·PAYLOAD·🇺🇸 United States

Gestartet Jun 23, 2023 von Cape Canaveral Space Force Station

Loading…

Nächste Überflüge (nächste 24 Stunden)

TLE

AktuellSource: CelesTrak SupGP

Epoche: Sep 14, 2026, 22:22 UTC

1 57152C 23090BD  26257.93243056  .00024620  00000+0  89177-3 0  2573
2 57152  43.0019 274.5028 0001923 276.8701 191.3996 15.27563511    18

Verfolge STARLINK-6164 in Echtzeit mit AllMySat

Download on the App Store